Regional Weather Roundup
Issued by NWS

Home | Current Version | Previous Version | Graphics & Text | Print | Product List | Glossary On
Versions: 1 2 3 4 5 6 7 8 9 10 11 12 13 14 15 16 17 18 19 20 21 22 23 24 25 26 27 28 29 30 31 32 33 34 35 36 37 38 39 40 41 42 43 44 45 46 47 48 49 50
000
ASUS43 KLSX 301959
RWRMO

WEATHER SUMMARY FOR MISSOURI
NATIONAL WEATHER SERVICE SPRINGFIELD MO
200 PM CST FRI JAN 30 2015

NOTE: "FAIR" INDICATES FEW OR NO CLOUDS BELOW 12,000 FEET WITH NO
       SIGNIFICANT WEATHER AND/OR OBSTRUCTIONS TO VISIBILITY.
       CURRENT SKY AND/OR WEATHER CONDITIONS ARE NOT AVAILABLE FOR
       CHILLICOTHE AND FARMINGTON.

MOZ001>031-035>038-043-044-053-054-302100-
...NORTHERN AND WESTERN MISSOURI...

CITY           SKY/WX    TMP DP  RH WIND       PRES   REMARKS
KANSAS CTY INT CLOUDY    37  19  48 S7        30.46F
KANSAS C DTWN  MOSUNNY   39  18  42 CALM      30.47F
LEE`S SUMMIT   MOSUNNY   38  17  42 S6        30.46F
ST JOSEPH      PTSUNNY   36  19  50 S7        30.47F
CHILLICOTHE      N/A     37  19  48 SE6       30.49F
KIRKSVILLE     SUNNY     35  19  52 S6        30.47F

$$
MOZ066>068-077>081-088>096-101>105-302100-
...SOUTHWEST MISSOURI...

CITY           SKY/WX    TMP DP  RH WIND       PRES   REMARKS
SPRINGFIELD    SUNNY     45  14  28 W5        30.43F
JOPLIN         SUNNY     44  22  41 CALM      30.45F

$$
MOZ032>034-039>042-045>050-055>058-069>072-302100-
...CENTRAL MISSOURI...

CITY           SKY/WX    TMP DP  RH WIND       PRES   REMARKS
COLUMBIA       MOSUNNY   37  16  42 CALM      30.47F
JEFFERSON CITY MOSUNNY   37  18  46 S5        30.49F
ROLLA          SUNNY     39  17  41 N3        30.44F
SEDALIA        PTSUNNY   38  20  48 E3        30.48F
OSAGE BEACH    MOSUNNY   41  19  42 W3        30.47F

$$
MOZ051-052-059>065-302100-
...EAST CENTRAL MISSOURI...

CITY           SKY/WX    TMP DP  RH WIND       PRES   REMARKS
ST LOUIS INTL  MOSUNNY   40  16  37 CALM      30.49
SPIRIT OF STL  MOSUNNY   38  15  39 CALM      30.49F
ST CHARLES     SUNNY     37  20  50 S5        30.50F

$$
MOZ072>076-082>087-097>100-106>115-302100-
...SOUTH CENTRAL AND SOUTHEAST MISSOURI...

CITY           SKY/WX    TMP DP  RH WIND       PRES   REMARKS
CAPE GIRARDEAU SUNNY     43  22  43 VRB7      30.48F
FARMINGTON     SUNNY     39  18  41 W3        30.49F
POPLAR BLUFF   SUNNY     41  22  46 VRB3      30.47F
WEST PLAINS    SUNNY     46  15  28 CALM      30.44F

$$



USA.gov is the U.S. government's official web portal to all federal, state and local government web resources and services.